CZ-3C R/B, 44232

Orbit data source: Space-Track

CZ-3C R/B, 44232 is space debris in HEO originally from a launch on Fri, 17 May 2019 UTC launched from the Xichang Space Center, China (XSC). Debris objects in space refer to the collection of defunct objects orbiting the Earth. Examples of debris include non-operational satellites, rocket bodies, and fragments generated from explosions, collisions, or faulty payload assembly.

Loading next visibility...
Identifier
44232, 2019-027B
Orbit
HEO
Last TLE update
1 day ago
Origin
Manufacturer
CALT
Mission
Spacecraft
Bus & Motor
CZ-3C STAGE 3, Unknown motor
Mass
~2,800 kg wet, ~2,800 kg dry
Launch date (UTC)
2019-05-17 (6 years ago)
Launch vehicle
Unknown
Launch site
Xichang Space Center, China (XSC)
Object type
Payload
Rocket body
Debris
Shape & HBR
Cyl + 1 Nozzle, 12.38 m
Radar Cross Section
32.704 m², Large (>1 m²)

Expand to show TLE details & history

TLE from 1 day ago
0 CZ-3C R/B
1 44232U 19027B   25191.13669381  .00069419  11430-5  23794-2 0  9999
2 44232  19.3879  85.0357 6514019  35.4691 353.9891  3.35664588 60952
Epoch: 2025-07-10T03:16Z
TLE epoch observation values (Epoch: 2025-07-10T03:16:50.345Z)
Latitude
-0.00015°
Longitude
107.54908°
Altitude
690.327 km
Speed
9.572 km/s
True Right ascension
05h 40m 15s
True Declination
0° 00' 01"
Sunlit
Object was in daylight at epoch
Visualization orbit readout
Latitude
-2.10544°
Longitude
-67.27623°
Altitude
18,303.329 km
Speed
3.337 km/s
Apparent Right ascension
17h 17m 50s
Apparent Declination
-12° 25' 38"
Sunlit
Object is in daylight
Visualization observer readout
Local Sidereal Time
21:59:12
Azimuth
247.769° W
Elevation
6.541°
Doppler factor
1
Orbital elements
Apogee altitude
24,745.296 km
Perigee altitude
191.778 km
Semi-major axis
18,846.674 km
Eccentricity
0.6514
Inclination
19.3879°
RAAN
85.0357°
Arg. of periapsis
35.4691°
True anomaly
Unknown
Mean anomaly
353.9891°
Eccentric anomaly
Unknown
Mean motion
0.83886 °/min
Orbital period
429.15 mins
BSTAR
0.0023794
Loading maneuver chart data...
Loading SW <> Apogee altitude chart data...
Loading historical data...
Loading historical data...
Loading historical data...
Loading historical data...
Loading historical data...
Loading historical data...
Loading historical data...
Other satellites on launch #27 in the year 2019 (2019-05-17 UTC)

CZ-3C R/B Visibility forecast

Observer location: undefined°, undefined°

Span
Click to sort rows by Start time (UTC) header in descending order
Start Az.
Max El. time (UTC)
Max El. Az.
Max El.
End time (UTC)
End Az.
9 mins2025-07-11 22:26:26.994Z166.515° S2025-07-11 22:29:26.994Z140.611° SSE14.057°2025-07-11 22:35:26.994Z116.707° SE
221 mins2025-07-12 06:00:26.994Z248.537° W2025-07-12 07:02:26.994Z211.325° SW26.863°2025-07-12 09:41:26.994Z204.166° SW
|